Change the Weather History Date:

Wednesday, December 5, 2012

  Actual Average Record
Temperature  
Mean Temperature 36 °F -  
Max Temperature 42 °F 40 °F 53 °F (2002)
Min Temperature 30 °F 24 °F 13 °F (2013)
Degree Days  
Heating Degree Days 29    
Moisture  
Dew Point 30 °F    
Average Humidity 84    
Maximum Humidity 93    
Minimum Humidity 53    
Precipitation  
Precipitation 0.00 in - - ()
Sea Level Pressure  
Sea Level Pressure 29.78 in    
Wind  
Wind Speed 8 mph ()    
Max Wind Speed 16 mph    
Max Gust Speed -    
Visibility 6.2 miles    
Events      
Averages and records for this station are not official NWS values.
T = Trace of Precipitation, MM = Missing Value Source: Averaged Metar Reports

Daily Weather History Graph

Daily Weather History Graph

Search for Another Location

Airport or City:

Trip Planner

Search our weather history database for the weather conditions in past years. The results will help you decide how hot, cold, wet, or windy it might be!

Date:

Astronomy

Dec. 05, 2012 Rise Set
Actual Time 6:55 AM EET 4:22 PM EET
Civil Twilight 6:24 AM EET 4:52 PM EET
Nautical Twilight 5:50 AM EET 5:26 PM EET
Astronomical Twilight 5:18 AM EET 5:59 PM EET
Moon 10:50 PM EET (12/5) 11:08 AM EET (12/5)
Length of Visible Light 10h 27m
Length of Day
9h 27m
Waning Gibbous, 63% of the Moon is Illuminated
Dec 5
Waning Gibbous
Dec 6
Last Quarter
Dec 13
New
Dec 20
First Quarter
Dec 28
Full

Hourly Weather History & Observations

Time (EET) Temp. Windchill Dew Point Humidity Pressure Visibility Wind Dir Wind Speed Gust Speed Precip Events Conditions
12:20 AM 33.8 °F 23.5 °F 30.2 °F 87% 29.71 in 6.2 mi WSW 16.1 mph - N/A   Mostly Cloudy
12:50 AM 33.8 °F 24.3 °F 30.2 °F 87% 29.71 in 6.2 mi SW 13.8 mph - N/A   Mostly Cloudy
1:20 AM 33.8 °F 24.3 °F 30.2 °F 87% 29.74 in 6.2 mi SW 13.8 mph - N/A   Scattered Clouds
1:50 AM 33.8 °F 24.8 °F 30.2 °F 87% 29.74 in 6.2 mi SW 12.7 mph - N/A   Scattered Clouds
2:00 AM 33 °F - 30 °F 82% 29.82 in 12 mi SW 12.7 mph - -   Partly Cloudy
2:20 AM 33.8 °F 25.8 °F 30.2 °F 87% 29.74 in 6.2 mi SW 10.4 mph - N/A   Scattered Clouds
2:50 AM 33.8 °F 25.8 °F 30.2 °F 87% 29.77 in 6.2 mi WSW 10.4 mph - N/A   Scattered Clouds
3:20 AM 33.8 °F 25.3 °F 30.2 °F 87% 29.77 in 6.2 mi SW 11.5 mph - N/A   Scattered Clouds
3:50 AM 32.0 °F 23.0 °F 30.2 °F 93% 29.77 in 6.2 mi SW 11.5 mph - N/A   Scattered Clouds
4:20 AM 32.0 °F 23.6 °F 30.2 °F 93% 29.77 in 6.2 mi SW 10.4 mph - N/A   Scattered Clouds
4:50 AM 33.8 °F 27.0 °F 30.2 °F 87% 29.77 in 6.2 mi SW 8.1 mph - N/A   Scattered Clouds
5:20 AM 33.8 °F 25.8 °F 30.2 °F 87% 29.77 in 6.2 mi SW 10.4 mph - N/A   Scattered Clouds
5:50 AM 33.8 °F 25.3 °F 30.2 °F 87% 29.77 in 6.2 mi WSW 11.5 mph - N/A   Scattered Clouds
6:20 AM 32.0 °F 26.4 °F 30.2 °F 93% 29.80 in 6.2 mi SSW 5.8 mph - N/A   Scattered Clouds
6:50 AM 32.0 °F 24.8 °F 30.2 °F 93% 29.80 in 5.0 mi SSW 8.1 mph - N/A   Scattered Clouds
7:20 AM 32.0 °F 25.6 °F 30.2 °F 93% 29.80 in 5.0 mi SSW 6.9 mph - N/A   Scattered Clouds
7:50 AM 32.0 °F 26.4 °F 30.2 °F 93% 29.80 in 6.2 mi South 5.8 mph - N/A   Scattered Clouds
8:00 AM 33 °F - 30 °F 84% 29.92 in 12 mi South 5.8 mph - -   Partly Cloudy
8:20 AM 33.8 °F 28.6 °F 30.2 °F 87% 29.83 in 6.2 mi South 5.8 mph - N/A   Scattered Clouds
8:50 AM 33.8 °F 27.7 °F 30.2 °F 87% 29.83 in 6.2 mi South 6.9 mph - N/A   Scattered Clouds
9:20 AM 35.6 °F 31.7 °F 30.2 °F 81% 29.80 in 6.2 mi WSW 4.6 mph - N/A   Partly Cloudy
9:50 AM 37.4 °F 33.8 °F 30.2 °F 75% 29.80 in 6.2 mi South 4.6 mph - N/A   Partly Cloudy
10:20 AM 39.2 °F 37.0 °F 30.2 °F 70% 29.80 in 6.2 mi South 3.5 mph - N/A   Partly Cloudy
10:50 AM 37.4 °F 32.1 °F 30.2 °F 75% 29.80 in 6.2 mi SW 6.9 mph - N/A   Scattered Clouds
11:20 AM 39.2 °F 32.5 °F 30.2 °F 70% 29.80 in 6.2 mi SW 10.4 mph - N/A   Scattered Clouds
11:50 AM 37.4 °F 30.8 °F 30.2 °F 75% 29.80 in 6.2 mi SW 9.2 mph - N/A   Scattered Clouds
12:20 PM 39.2 °F 33.6 °F 32.0 °F 75% 29.80 in 6.2 mi WSW 8.1 mph - N/A   Scattered Clouds
12:50 PM 39.2 °F 35.9 °F 30.2 °F 70% 29.77 in 6.2 mi West 4.6 mph - N/A   Scattered Clouds
1:20 PM 41.0 °F 35.8 °F 32.0 °F 70% 29.77 in 6.2 mi WSW 8.1 mph - N/A   Scattered Clouds
1:50 PM 41.0 °F 37.1 °F 32.0 °F 70% 29.77 in 6.2 mi WSW 5.8 mph - N/A   Scattered Clouds
2:00 PM 42 °F - 31 °F 53% 29.85 in 12 mi WSW 5.8 mph - -   Partly Cloudy
2:20 PM 41.0 °F 37.1 °F 30.2 °F 65% 29.77 in 6.2 mi WSW 5.8 mph - N/A   Scattered Clouds
2:50 PM 41.0 °F 39.0 °F 32.0 °F 70% 29.77 in 6.2 mi WSW 3.5 mph - N/A   Scattered Clouds
4:20 PM 37.4 °F - 30.2 °F 75% 29.77 in 6.2 mi South 2.3 mph - N/A   Scattered Clouds
4:50 PM 37.4 °F - 30.2 °F 75% 29.77 in 6.2 mi South 2.3 mph - N/A   Scattered Clouds
5:20 PM 37.4 °F 32.8 °F 32.0 °F 81% 29.77 in 6.2 mi SSE 5.8 mph - N/A   Partly Cloudy
5:50 PM 35.6 °F 31.7 °F 32.0 °F 87% 29.77 in 6.2 mi SSW 4.6 mph - N/A   Scattered Clouds
6:20 PM 35.6 °F 31.7 °F 30.2 °F 81% 29.80 in 6.2 mi South 4.6 mph - N/A   Scattered Clouds
6:50 PM 33.8 °F - 30.2 °F 87% 29.77 in 6.2 mi Variable 1.2 mph - N/A   Scattered Clouds
7:20 PM 33.8 °F - 30.2 °F 87% 29.77 in 6.2 mi West 1.2 mph - N/A   Scattered Clouds
7:50 PM 32.0 °F 28.7 °F 30.2 °F 93% 29.77 in 6.2 mi North 3.5 mph - N/A   Scattered Clouds
8:00 PM 32 °F - 31 °F 92% 29.89 in 6 mi North 3.5 mph - -   Scattered Clouds
8:20 PM 32.0 °F 27.5 °F 30.2 °F 93% 29.77 in 3.7 mi NNE 4.6 mph - N/A   Scattered Clouds
8:50 PM 32.0 °F 27.5 °F 30.2 °F 93% 29.77 in - NE 4.6 mph - N/A   Scattered Clouds
9:20 PM 32.0 °F - 30.2 °F 93% 29.77 in - Variable 2.3 mph - N/A   Scattered Clouds
9:50 PM 32.0 °F 27.5 °F 30.2 °F 93% 29.77 in 3.7 mi NE 4.6 mph - N/A   Scattered Clouds
10:20 PM 30.2 °F 26.7 °F 28.4 °F 93% 29.77 in 3.7 mi NNE 3.5 mph - N/A   Scattered Clouds
10:50 PM 30.2 °F 26.7 °F 28.4 °F 93% 29.77 in 3.7 mi NNE 3.5 mph - N/A   Scattered Clouds
11:20 PM 30.2 °F - 28.4 °F 93% 29.77 in 3.7 mi Variable 2.3 mph - N/A   Scattered Clouds
11:50 PM 30.2 °F 25.4 °F 28.4 °F 93% 29.74 in 3.7 mi NNE 4.6 mph - N/A   Scattered Clouds